カタログに戻る

FENGYUN 1C DEB

運用中PO
NORAD 41003·DEBRIS·🇨🇳 China

打ち上げ May 10, 1999 から Taiyuan Satellite Launch Center

Loading…

次のパス (今後24時間)

TLE

最新Source: Space-Track

元期: Sep 12, 2026, 03:36 UTC

1 41003U 99025EXH 26255.15013377  .00021796  00000-0  23021-2 0  9995
2 41003  98.9674 211.4068 0053835 144.1292 216.3556 14.88192138564673

AllMySatでFENGYUN 1C DEBをリアルタイム追跡

Download on the App Store